Weather in Man

Côte d'Ivoire     7°24′20″N   7°33′13″W
temp.,
°C
wind,
m/s
gust,
m/s
humid.,
%
clouds,
%
prec.,
mm/h
press.,
hPa
HPBL,
m
7 may, fri
fri700:00+20w119344 0.4 101424
03:00+19wnw1193100 0.0 101328
06:00+19wnw119296 0.0 101423
09:00+26sw1164100 0.0 1015434
12:00+32s2243100 0.0 10141620
15:00+29s125279 0.0 1011302
18:00+28ssw125897 0.1 101169
21:00+23wsw1175100 0.2 101411
8 may, sat
sat800:00+21ne0091100 1.9 101512
03:00+20wsw1196100 0.1 101414
06:00+20wnw1197100 0.1 101522
09:00+26ssw2369100 0.0 1015617
12:00+31ssw234852 0.0 10141978
15:00+29ssw345795 0.4 1011914
18:00+26sw2377100 1.6 1012169
21:00+22ssw1295100 0.6 101536
9 may, sun
sun900:00+21ssw1198100 0.8 101643
03:00+20w2397100 2.6 1013128
06:00+20wsw119892 2.6 101336
09:00+25sw127791 0.0 1014472
12:00+32ssw224570 0.0 10121491
15:00+32se224184 0.0 10092003
18:00+24sse117761 0.4 101015
21:00+21sw1195100 1.9 101315
10 may, mon
mon1000:00+21sw119940 2.3 101442
03:00+20nnw129996 2.9 101355
06:00+20nnw1299100 3.9 101450
09:00+25ssw128084 0.0 1014350
12:00+32s2246100 0.0 10121526
15:00+34sse263791 0.0 10093049
18:00+27ene0068100 0.1 101011
21:00+23sw1182100 0.5 101316
11 may, tue
tue1100:00+21sw1296100 0.7 101454
03:00+21w119988 0.0 101340
06:00+20nw119930 0.1 101416
09:00+26ssw117657 0.2 1016678
12:00+32se134857 0.3 10141799
15:00+34sse254192 0.8 10102561
18:00+29sse136075 0.8 101174
21:00+23sw11857 0.8 101420